Regional Weather Roundup
Issued by NWS

Home | Current Version | Previous Version | Graphics & Text | Print | Product List | Glossary On
Versions: 1 2 3 4 5 6 7 8 9 10 11 12 13 14 15 16 17 18 19 20 21 22 23 24 25 26 27 28 29 30 31 32 33 34 35 36 37 38 39 40 41 42 43 44 45 46 47 48 49 50
269
ASUS45 KTFX 190610
RWRMT
MONTANA REGIONAL WEATHER ROUNDUP
NATIONAL WEATHER SERVICE GREAT FALLS MT
1200 AM MDT TUE SEP 19 2017

NOTE: "FAIR" INDICATES FEW OR NO CLOUDS BELOW 12000 FEET WITH NO
SIGNIFICANT WEATHER AND/OR OBSTRUCTIONS TO VISIBILITY.

MTZ001>007-043-190700-
WEST OF THE DIVIDE

CITY           SKY/WX    TMP DP  RH WIND       PRES   REMARKS
KALISPELL      CLOUDY    44  39  82 CALM      29.70F
MISSOULA       CLOUDY    42  32  67 CALM      29.75F
BUTTE          CLOUDY    40  37  89 CALM      29.73F
MULLAN PASS    LGT SNOW  32  31  96 SW6       29.71F VSB 3/4 WCI  26
ANACONDA         N/A     36  36 100 CALM      29.75F
DEER LODGE       N/A     37  36  93 CALM      29.76F
HAMILTON         N/A     43  37  81 CALM      29.74F
LIBBY            N/A     45  43  93 S3        29.71R
PLAINS           N/A     43  37  79 CALM      29.77
$$

MTZ008-052>055-190700-
SOUTHWEST MONTANA

CITY           SKY/WX    TMP DP  RH WIND       PRES   REMARKS
BOZEMAN        LGT RAIN  46  45  96 SW3       29.74F
DILLON         CLOUDY    43  37  79 S7        29.70F
W YELLOWSTONE  LGT RAIN  43  41  93 VRB5G17   29.75F
ENNIS          CLOUDY    43  37  81 CALM      29.78F
THREE FORKS      N/A     44  40  86 CALM      29.74
TWIN BRIDGES     N/A     45  37  73 CALM      29.75
$$

MTZ009-010-012-014-046-048-049-054-190700-
EAST SLOPES AND CENTRAL MONTANA

CITY           SKY/WX    TMP DP  RH WIND       PRES   REMARKS
CUT BANK       CLOUDY    45  34  65 W17       29.61F
GREAT FALLS    CLOUDY    47  34  60 SW17G26   29.63F
MALMSTROM AFB  MOCLDY    47  38  73 SW18      29.64F
HELENA         CLOUDY    47  37  68 W12       29.71F
BOWMANS CRNR   MOCLDY    41  33  71 SW15      29.65F
CHOTEAU          N/A     45  32  61 SW8       29.64F
FAIRFIELD      MOCLDY    46  33  60 SW13      29.62F
POWER            N/A     44  35  71 SW13      29.63F
RAYNESFORD     MOCLDY    43  38  83 SE3       29.65S
ULM            CLOUDY    48  34  58 SW17      29.66F
$$

MTZ011-013-016-021-045-047-050-051-190700-
NORTH CENTRAL MONTANA

CITY           SKY/WX    TMP DP  RH WIND       PRES   REMARKS
HAVRE          CLOUDY    51  39  63 SW8       29.59F
LEWISTOWN      CLOUDY    45  41  86 S5        29.66F
N BAR RANCH    CLOUDY    54  37  54 VRB7      29.67F
CHINOOK          N/A     55  37  50 W5        29.57F
DENTON           N/A     47  40  77 W13       29.60F
GEYSER         CLOUDY    45  39  79 SW7       29.65F
GRASS RANGE    MOCLDY    50  42  72 W12       29.62R
JUDITH GAP     CLOUDY    47  38  73 SW6       29.68F
WINIFRED       MOCLDY    46  43  86 SW7       29.63F
$$

MTZ017>020-022>027-061-062-190700-
NORTHEAST MONTANA

CITY           SKY/WX    TMP DP  RH WIND       PRES   REMARKS
GLASGOW        CLOUDY    62  46  55 N12       29.53F
JORDAN           N/A     55  49  80 SE3       29.53F
SIDNEY         CLOUDY    61  44  53 S8        29.58F
WOLF POINT     CLOUDY    60  45  57 N5        29.55F
MALTA          CLOUDY    55  52  88 W3        29.56F
PLENTYWOOD       N/A     59  46  63 SE10      29.61S
POPLAR           N/A     61  43  51 E6        29.55F
SCOBEY           N/A     61  40  45 SE7       29.59
$$

MTZ028>42-056>058-190700-
SOUTHCENTRAL AND SOUTHEAST MONTANA

CITY           SKY/WX    TMP DP  RH WIND       PRES   REMARKS
BAKER          CLOUDY    60  41  49 SE18      29.59F
BILLINGS       LGT RAIN  54  43  66 NW7       29.66R
LIVINGSTON     LGT RAIN  47  44  90 W10       29.71F
MILES CITY     CLEAR     64  42  44 S10       29.49F
BIG TIMBER     CLOUDY    46  43  87 W18       29.72S
EKALAKA          N/A     64  38  38 SE12      29.60
HARLOWTON      CLOUDY    49  40  73 MISG      29.68F
LAUREL           N/A     54  45  71 CALM      29.67R
$$

REGIONAL REPORTS...DAKOTAS

CITY           SKY/WX    TMP DP  RH WIND       PRES   REMARKS
WILLISTON      PTCLDY    62  45  53 SE9       29.62F
MINOT          PTCLDY    53  49  86 E8        29.71F
DICKINSON      PTCLDY    57  43  59 E13       29.65F
BEACH            N/A     61  39  44 SE22      29.63F
CROSBY           N/A     61  45  55 SE22G28   29.63F
TIOGA            N/A     59  45  58 SE15      29.68F
WATFORD CITY     N/A     57  46  67 SE13      29.62F
BISMARCK       PTCLDY    53  49  86 E8        29.73F
GRAND FORKS    CLOUDY    59  58  96 SE10      29.82F
FARGO          CLOUDY    61  59  93 S13G21    29.83S
BUFFALO SD       N/A     65  47  52 SE14      29.55S
$$

REGIONAL REPORTS...WYOMING/IDAHO/WASHINGTON

CITY           SKY/WX    TMP DP  RH WIND       PRES   REMARKS
GILLETTE       PTCLDY    64  35  34 S16       29.61F
SHERIDAN       CLOUDY    63  39  41 NW22G28   29.60R
BUFFALO WY     CLEAR     59  33  37 CALM      29.64F
CODY           CLOUDY    54  38  54 VRB6      29.73F
YELLOWSTONE LA   N/A     38  37  97 CALM      29.84F
IDAHO FALLS    CLOUDY    56  42  59 S13       29.69F
SALMON         RAIN      41  38  89 SE6       29.78R
BOISE          CLOUDY    50  43  77 SE8       29.80R
SPOKANE        PTCLDY    48  40  73 S14       29.69S
$$

REGIONAL REPORTS...ALBERTA

CITY           SKY/WX    TMP DP  RH WIND       PRES   REMARKS
EDMONTON       MOCLDY    45  41  87 W8        29.50F
CALGARY        MOCLDY    41  36  81 NW17      29.56S
LETHBRIDGE     MOCLDY    48  32  53 W21G28    29.56R
MEDICINE HAT   LGT RAIN  50  46  87 SW9       29.55S
$$

REGIONAL REPORTS...SASKATCHEWAN

CITY           SKY/WX    TMP DP  RH WIND       PRES   REMARKS
SWIFT CURRENT  CLOUDY    55  37  50 S7        29.52F
REGINA         MOCLDY    61  45  55 SE16G24   29.61F
SASKATOON      CLOUDY    59  46  63 E12       29.54F
$$




USA.gov is the U.S. government's official web portal to all federal, state and local government web resources and services.